Location: ????????
(55.4000°N, 39.1167°E)
Time: 16:47:43
(UTC+00:00)

NOSS 2-1 (D) - Pass Details

Date: 19 May 2025
Orbit: 378 x 1697 km, 63.3° (Epoch: 20 June)

Event Time Altitude Azimuth Distance (km) Brightness Sun altitude
Exits shadow 20:50:32 27° 205° (SSW) 829 3.8 -14.4°
Maximum altitude 20:52:01 57° 136° (SE) 471 2.7 -14.4°
Drops below altitude 10° 20:54:56 10° 57° (ENE) 1,403 5.8 -14.4°
Sets 20:56:56 0° 53° (NE) 2,273 6.9 -14.5°
